Theta_e
332 330 329 327 326 326 326 325 323 322 320 321 321 321 321 320 319 319 318 318 318 317 317 316 316 316 316 316 316 316 316 316 316 315 315 315 316 316 316 316 316 316 315 316 316 316 315 315 314 314 313 313 313 313 313 314 315 316 316 315 312 311 311 309 309 308 308 308 308 308 307 307 308 310 310 310 310 309 308 308 308 308 308 309 309
330 329 329 328 327 326 326 324 322 322 321 320 321 321 320 320 320 319 319 319 319 318 318 317 316 316 317 317 317 316 317 317 317 316 316 316 315 315 315 316 316 315 315 315 315 315 314 314 314 315 314 314 314 314 314 314 315 316 316 314 313 312 312 310 309 308 308 308 308 308 308 308 309 310 310 310 310 309 308 308 308 308 308 309 309
329 329 329 329 328 328 327 324 323 323 322 321 321 320 320 320 320 319 319 319 319 319 318 318 317 317 317 318 318 318 318 317 317 316 316 317 316 315 315 316 315 315 315 315 315 314 313 313 314 315 314 314 315 315 315 315 315 316 316 314 313 312 311 311 310 309 309 309 309 310 310 310 310 310 310 310 310 310 309 308 308 308 308 309 310
328 329 329 329 330 329 328 325 323 323 322 321 321 320 319 320 319 319 319 319 319 319 318 318 318 318 318 318 319 319 319 318 317 316 316 317 317 316 316 315 315 315 314 314 314 314 313 312 312 313 314 314 315 316 316 315 315 316 316 316 314 313 313 313 312 310 309 310 310 311 312 311 310 310 310 310 310 310 310 309 309 309 309 309 310
327 328 330 331 330 329 328 326 324 323 322 321 321 321 320 319 320 319 318 318 318 318 318 318 318 318 318 318 319 319 319 319 318 317 317 318 317 317 316 316 316 316 315 315 315 315 316 315 313 313 314 313 315 316 316 315 315 316 316 316 316 316 315 314 314 312 311 310 311 312 312 312 311 311 310 310 310 310 310 310 309 310 310 309 309
326 326 326 327 327 327 327 326 325 324 321 320 322 322 321 321 319 319 317 315 316 319 318 317 318 318 318 318 318 319 319 320 320 319 319 319 319 319 318 318 319 319 318 317 317 317 317 316 315 316 316 316 316 316 316 315 315 315 316 316 316 316 316 316 315 314 312 312 312 312 312 313 313 311 311 310 310 310 310 310 311 310 310 310 310
324 323 324 324 325 326 328 328 327 325 321 319 322 323 322 322 319 318 320 317 315 318 318 317 317 318 318 319 318 319 320 320 320 320 320 321 321 321 320 320 321 321 321 320 319 319 318 318 317 317 317 317 317 316 316 316 315 315 315 316 316 315 316 315 315 315 315 314 313 313 313 313 313 312 311 311 311 311 311 311 311 311 310 310 310
322 322 324 325 325 326 327 326 326 326 322 319 321 322 321 320 316 316 321 321 318 319 319 317 318 318 318 319 319 319 320 320 320 321 321 322 323 322 322 322 322 322 321 321 321 320 320 319 319 318 318 318 318 317 316 316 315 315 314 314 314 314 314 315 315 315 315 315 315 315 314 314 314 313 312 312 312 312 311 311 311 311 310 310 310
321 321 323 324 324 324 324 324 324 324 324 321 321 321 319 319 317 317 321 322 320 321 320 318 319 319 319 320 320 320 320 320 320 320 320 322 322 323 323 323 322 322 321 322 322 321 321 320 320 319 318 318 318 318 317 317 316 315 314 314 314 314 314 314 315 315 315 315 315 315 314 314 314 314 313 312 312 312 311 311 311 310 310 309 309
322 321 322 323 324 323 323 324 323 322 322 323 323 321 320 321 321 320 321 322 321 322 321 320 320 320 320 320 320 320 320 319 320 319 319 320 321 322 322 323 323 322 321 320 320 321 321 321 320 319 319 319 319 319 318 318 317 317 317 317 317 316 314 314 314 315 315 315 315 315 314 314 314 314 313 312 312 311 310 310 309 309 309 309 309
322 322 322 322 322 323 322 323 322 322 322 323 323 322 321 322 322 321 322 322 322 322 321 321 321 321 320 320 320 319 319 319 320 319 319 321 322 322 322 322 322 321 321 319 319 320 321 321 320 319 319 319 320 318 318 318 317 317 318 318 318 316 314 314 314 314 315 314 314 314 314 313 312 312 312 311 311 310 309 308 308 308 308 308 307
321 322 322 322 322 323 322 321 322 322 322 322 322 322 321 322 322 321 322 323 323 322 321 321 321 321 320 320 320 320 319 320 319 319 320 322 322 321 322 322 321 321 321 320 320 320 319 320 320 319 319 320 320 319 318 318 318 318 317 317 318 316 314 314 314 314 314 314 313 313 313 312 312 312 311 310 309 309 308 307 307 306 306 306 305
322 322 321 320 321 322 322 321 322 321 321 322 322 321 321 322 322 323 323 323 323 323 322 322 322 321 321 321 320 320 320 320 320 319 319 320 319 319 318 319 320 320 320 320 319 319 318 319 319 319 319 320 320 320 319 319 318 318 316 316 316 316 314 314 314 313 313 312 311 311 312 312 311 311 311 309 308 307 307 306 306 305 305 304 303
319 321 321 320 320 322 321 321 321 320 320 321 321 321 321 320 321 323 323 323 323 323 323 322 322 322 322 321 321 321 321 321 320 319 319 319 319 317 316 318 319 320 319 318 318 318 318 319 319 319 320 320 320 319 319 318 317 316 316 315 315 315 315 314 314 313 313 312 311 310 310 311 311 311 310 309 307 306 306 305 305 305 304 303 302
310 313 315 316 318 320 321 321 321 320 320 321 321 321 321 319 320 323 323 323 323 323 322 322 322 322 321 322 321 321 321 321 319 318 318 319 318 316 317 319 319 318 317 317 317 317 317 318 319 319 320 319 318 319 319 318 317 316 315 315 315 315 315 314 314 313 313 312 311 309 309 310 310 309 309 307 306 305 305 304 304 303 302 301 301
306 306 307 308 311 315 317 318 319 319 320 321 320 320 321 321 322 323 322 322 322 322 322 322 321 322 322 322 322 321 321 320 319 318 317 317 318 317 318 318 317 317 317 317 316 316 317 318 318 319 320 319 317 318 319 318 317 316 315 314 313 312 313 313 311 310 310 310 309 309 309 309 309 308 307 305 304 304 304 303 303 302 301 300 300
305 305 305 306 307 310 311 312 313 313 315 317 319 320 321 322 322 321 321 322 322 321 321 321 321 322 321 321 321 321 320 320 319 319 319 318 318 318 318 318 317 318 319 318 316 317 318 317 318 319 319 318 318 318 316 315 316 317 316 315 313 312 312 311 309 308 308 308 308 308 309 309 308 307 305 304 304 303 303 302 301 301 300 299 299
305 305 304 305 306 308 309 309 310 310 310 311 313 315 317 318 321 321 320 319 320 320 321 321 320 321 321 321 321 321 320 320 320 320 320 319 318 318 318 317 317 318 320 318 317 317 317 316 317 318 319 318 317 316 313 310 312 316 316 315 314 313 311 310 309 308 308 307 307 307 307 306 306 304 303 303 303 302 302 301 300 300 299 299 298
304 304 303 303 305 305 307 307 308 308 308 307 309 310 311 313 317 319 319 319 318 317 318 319 319 319 319 320 320 320 320 319 318 319 319 318 318 318 316 315 316 317 318 318 317 316 316 316 317 318 318 315 313 311 308 305 307 313 315 314 313 312 310 309 308 307 307 307 306 305 304 304 303 303 302 302 302 302 302 302 301 300 299 299 299
304 303 303 303 304 304 304 305 306 306 306 306 306 308 309 310 311 313 315 316 317 317 317 317 317 317 317 318 319 319 319 317 315 316 318 318 318 317 314 313 314 316 317 317 316 315 314 315 317 316 314 311 309 307 305 303 306 311 313 313 312 312 310 308 307 307 307 306 305 304 303 303 303 303 303 303 303 303 302 302 301 300 299 299 299
304 304 303 303 303 303 303 303 304 304 305 306 306 306 306 307 308 308 309 311 312 314 316 317 317 316 315 315 316 318 317 315 313 315 316 315 315 314 313 311 310 312 315 315 315 315 314 313 314 313 311 310 309 307 305 304 308 311 311 310 311 310 309 308 307 307 306 305 304 303 303 303 302 301 301 302 301 301 301 301 300 299 299 298 297
302 303 303 303 303 303 303 303 303 303 303 304 305 306 306 306 307 307 308 308 308 310 311 313 315 315 315 314 315 315 315 315 314 313 313 313 312 311 311 310 308 309 313 314 314 314 314 312 312 311 310 309 308 306 304 305 307 309 309 309 308 308 307 307 306 305 304 303 303 303 302 301 300 300 300 299 299 299 299 299 298 297 297 296 295
301 301 302 302 302 303 303 303 303 303 303 303 303 303 304 305 306 307 306 306 307 307 308 309 310 312 314 315 315 315 314 314 314 312 311 309 308 306 306 305 304 306 311 314 314 314 313 312 311 311 310 309 307 305 305 305 306 307 307 306 306 305 304 303 303 303 303 302 302 301 300 300 299 299 298 298 297 297 297 296 296 296 295 295 294
300 300 301 301 302 302 302 302 302 302 302 302 302 302 302 303 304 305 305 305 306 306 306 307 307 309 310 311 314 315 315 315 314 312 310 307 303 302 302 302 302 305 310 312 313 313 312 310 310 310 309 307 306 305 305 305 305 305 305 304 303 302 301 301 301 301 301 301 300 300 299 299 298 298 297 296 296 296 295 295 295 295 294 294 293
299 299 300 300 300 301 301 301 301 301 301 302 301 302 302 302 302 302 303 303 304 305 305 306 307 308 308 309 311 312 313 313 311 310 309 306 302 300 300 301 304 307 309 311 313 313 312 309 308 308 307 306 305 305 305 305 304 304 303 303 302 300 300 300 300 300 300 299 298 298 298 297 297 297 297 296 296 296 295 295 294 294 294 293 293
298 298 299 299 299 299 299 300 300 300 300 301 301 301 301 301 302 302 301 302 303 304 305 305 306 307 308 310 310 310 310 311 310 308 307 303 302 302 302 303 305 307 308 309 312 312 310 308 307 306 306 306 305 305 304 304 303 303 302 302 301 299 300 300 299 299 298 298 297 297 297 296 296 296 296 296 296 295 295 294 294 294 293 292 292
297 297 298 298 298 298 298 298 298 299 299 299 300 300 301 300 301 301 301 302 303 303 303 303 303 304 307 309 309 310 310 310 310 309 307 304 303 304 304 304 306 306 307 308 310 310 309 307 306 305 305 305 304 304 303 303 303 302 301 300 299 299 299 299 298 297 297 296 297 297 297 296 296 295 295 295 294 294 294 293 293 292 292 291 291
296 297 297 297 297 297 297 297 297 298 298 298 298 299 299 299 299 299 299 301 302 302 302 302 301 302 303 305 306 307 308 309 309 310 309 307 306 303 302 303 304 305 306 307 307 307 306 303 302 302 303 303 302 302 302 302 302 301 300 299 299 299 298 298 298 297 296 296 297 297 296 295 295 295 294 294 294 293 293 293 292 292 291 291 291
296 296 296 296 296 296 296 296 297 297 297 297 297 297 298 298 298 298 298 299 299 299 299 300 300 300 301 301 301 303 305 307 309 309 309 309 308 306 304 304 303 303 304 306 306 305 303 301 299 300 301 302 301 301 301 301 300 299 299 298 298 298 298 297 297 297 297 297 296 295 295 295 294 294 294 293 293 293 292 292 291 291 291 291 291
296 296 296 296 296 296 296 296 296 296 297 297 297 297 297 297 297 298 298 298 298 298 298 298 299 299 299 300 300 300 301 303 305 306 306 307 308 307 306 305 303 302 303 306 305 304 302 301 300 301 301 302 301 301 300 299 299 298 298 297 297 297 297 297 296 297 297 295 295 294 294 294 294 293 293 293 292 292 292 292 291 291 291 291 291
295 295 295 296 296 296 296 296 296 296 296 297 297 297 297 297 297 297 297 297 297 297 298 298 298 298 299 299 299 299 299 300 300 301 301 303 305 306 306 305 304 303 303 304 304 302 301 301 300 300 301 301 301 301 299 298 298 298 298 297 296 296 296 295 295 296 295 294 294 294 293 293 293 293 293 293 292 292 292 291 291 291 291 291 291
295 295 295 296 296 296 296 296 296 296 296 297 297 297 297 296 297 297 296 296 296 297 297 297 298 298 299 299 299 298 299 299 299 299 299 300 302 306 307 306 304 302 302 303 303 302 302 301 300 300 300 301 301 300 299 298 298 298 298 297 297 296 295 295 294 295 294 294 294 293 293 293 293 293 293 292 292 292 292 291 291 291 291 291 291
295 296 296 296 296 296 296 296 296 296 296 296 296 296 296 295 295 295 296 296 296 296 296 296 297 298 298 299 299 298 298 298 299 299 300 300 301 304 306 306 305 303 302 302 301 301 301 300 300 300 301 301 301 300 299 299 298 298 298 297 296 296 295 294 294 294 294 294 293 293 293 293 293 293 292 292 292 292 291 291 291 291 291 291 290
296 296 296 296 296 296 295 295 295 295 295 295 295 295 295 294 294 294 294 295 295 295 295 295 296 297 297 297 298 298 298 298 298 299 300 301 302 303 305 305 304 303 303 302 301 301 301 300 300 301 301 301 300 300 299 299 298 297 296 296 295 295 294 293 294 294 293 293 293 293 293 293 293 292 292 292 292 292 291 291 291 291 290 290 290
296 296 297 296 296 295 295 294 294 294 294 294 294 294 294 294 294 294 294 294 294 294 294 294 295 296 296 297 298 298 298 298 298 298 299 300 301 303 305 305 304 303 303 302 301 301 301 300 299 299 299 300 300 299 298 297 296 296 295 295 294 294 293 293 293 293 292 292 292 292 292 292 292 292 292 291 291 291 291 291 290 290 290 290 290
296 296 296 296 295 294 294 294 294 294 293 293 293 293 293 293 293 293 293 293 293 293 293 293 294 295 296 297 297 298 298 298 298 299 299 300 300 302 303 304 304 303 302 300 300 300 300 299 298 297 298 298 298 297 297 296 296 296 295 294 293 292 292 292 292 292 292 292 292 292 292 291 291 291 291 291 291 291 290 290 290 290 290 290 290
297 296 296 295 294 294 293 293 293 293 293 293 292 292 292 293 293 293 293 293 293 293 293 293 293 294 296 296 297 297 298 298 298 299 299 300 300 300 302 303 303 301 299 298 299 299 299 298 297 297 298 298 297 297 296 296 295 295 294 293 292 292 292 292 292 292 292 292 292 292 291 291 291 291 290 290 290 290 289 289 289 289 290 290 290
296 296 295 294 294 294 293 293 293 293 293 292 292 292 292 292 292 293 293 293 293 293 293 293 293 294 296 296 296 296 297 298 298 298 298 298 299 299 300 301 300 298 296 297 298 298 298 297 297 297 297 297 296 296 296 295 295 294 294 293 292 292 292 291 291 292 292 292 292 292 291 291 290 290 290 290 289 289 289 289 289 289 290 290 290
296 295 295 294 294 293 293 293 293 292 292 292 292 292 293 293 293 293 293 292 293 293 293 293 294 294 295 295 296 296 297 297 297 297 297 297 297 298 298 298 297 296 297 297 298 298 297 297 297 297 296 296 296 296 295 295 294 294 293 293 292 292 291 291 291 291 291 291 291 291 291 290 290 289 289 289 289 289 289 289 289 289 289 290 290
295 295 294 294 294 293 293 293 292 292 292 292 292 293 293 293 293 293 292 292 292 293 293 293 293 294 294 294 295 296 296 297 297 297 296 296 296 296 296 296 296 297 298 298 298 298 297 297 296 296 296 296 296 295 295 294 294 293 293 292 292 291 291 291 291 291 291 291 291 290 290 289 289 289 289 289 288 289 289 289 289 290 290 290 290
295 295 294 294 293 293 293 292 292 291 292 292 292 293 293 293 292 292 292 292 292 292 293 293 293 294 294 294 295 296 297 296 296 296 296 296 295 295 295 295 296 296 296 296 296 297 296 295 295 295 295 295 294 294 294 294 293 292 292 291 291 291 291 291 291 291 291 291 290 290 289 289 289 289 289 289 289 289 290 290 290 290 290 290 290
295 295 294 294 293 293 293 292 292 291 292 292 292 292 292 292 292 292 292 292 292 293 293 293 294 294 294 294 295 296 296 296 295 295 295 295 295 295 294 295 295 296 296 296 296 295 295 294 294 295 294 294 294 293 293 292 292 291 290 290 291 291 291 291 291 290 290 290 290 289 289 289 289 289 289 289 289 290 290 290 290 290 290 290 290
295 295 294 294 293 293 293 292 292 292 292 292 292 292 292 292 292 292 292 292 293 293 293 293 294 294 294 294 294 295 295 295 295 295 295 295 295 295 295 295 295 296 297 296 295 294 294 294 294 294 293 293 293 292 291 291 291 290 290 290 290 290 289 289 288 288 289 289 289 289 289 289 289 289 289 289 290 290 290 290 290 290 290 290 290
295 294 294 294 294 293 293 292 292 292 292 292 292 292 292 292 292 292 292 292 292 292 292 292 293 293 293 293 294 294 294 294 294 294 294 294 294 294 295 295 296 296 296 294 293 294 294 293 292 292 292 291 291 291 290 290 290 290 290 289 289 288 287 287 287 287 289 289 289 289 289 288 289 289 289 289 289 290 290 290 290 290 290 290 290
295 295 295 294 294 294 293 293 292 292 292 292 292 292 292 292 292 292 292 292 292 292 292 292 292 292 292 292 293 293 293 292 292 292 292 293 293 293 294 294 294 294 293 292 292 293 292 292 291 291 290 290 290 290 290 290 290 289 289 288 288 288 287 287 286 287 288 289 289 289 289 288 289 289 289 290 290 290 290 290 290 290 290 290 290
296 295 295 295 294 294 294 293 293 293 293 292 292 292 292 292 292 292 292 292 291 292 291 291 291 292 292 292 292 292 291 291 291 291 291 291 291 291 292 292 291 291 291 291 291 291 291 291 291 291 290 290 290 290 290 289 289 288 288 288 288 288 288 287 286 286 287 288 289 289 288 289 289 289 289 289 290 290 290 290 290 290 290 290 290
296 296 295 295 295 294 294 294 293 294 293 293 292 292 292 292 292 292 291 291 291 291 291 291 291 291 291 291 291 291 291 291 291 290 290 290 291 291 291 291 290 290 290 290 290 290 290 290 290 291 290 290 290 289 289 289 288 288 288 288 288 287 287 287 286 286 287 288 289 289 288 289 289 289 289 289 289 289 290 290 290 290 290 291 291
296 295 295 295 295 294 294 294 294 293 293 293 293 292 292 292 291 291 291 291 291 291 291 291 291 291 291 291 291 291 291 291 291 291 291 291 291 291 291 291 291 291 291 291 291 290 290 290 290 290 290 289 289 289 289 288 288 288 288 288 288 288 288 287 287 286 286 288 289 289 288 289 289 289 289 289 289 289 290 290 290 290 291 291 291
296 296 295 295 295 295 294 294 293 293 293 293 293 293 292 292 291 291 291 291 291 291 291 291 291 291 291 291 291 291 291 291 291 291 291 291 290 291 291 290 290 290 290 290 290 290 289 289 289 289 289 289 289 288 288 287 287 287 287 288 288 289 288 288 287 286 287 288 289 288 288 289 289 289 289 289 289 289 290 290 290 290 290 290 290
295 296 295 295 295 295 294 294 293 293 293 292 292 292 292 292 292 291 291 291 291 291 291 291 291 291 291 291 291 290 290 290 290 290 290 290 290 290 290 290 290 289 289 289 289 289 289 288 288 288 288 288 288 287 287 287 287 287 288 288 289 289 288 287 286 286 287 288 288 288 289 289 289 289 289 289 289 289 289 290 290 290 290 290 290
294 295 295 295 295 294 294 294 293 293 293 292 292 292 291 291 291 291 291 291 291 291 291 291 290 291 290 290 290 290 290 289 289 289 290 289 290 290 289 289 289 289 288 288 288 288 288 288 287 287 287 287 287 287 286 287 287 288 288 288 289 288 287 286 286 286 287 288 288 289 289 289 289 289 289 289 289 289 289 289 289 290 290 290 290
Wind_Speed
22 23 23 23 24 22 17 16 20 22 20 20 18 17 16 16 16 16 16 16 16 15 14 14 14 14 16 17 17 17 16 16 16 17 18 17 16 15 14 14 15 15 15 13 13 14 14 14 13 11 10 10 9 8 8 10 13 14 14 18 22 20 19 19 15 11 11 12 14 14 13 12 8 4 3 3 3 3 3 3 4 4 5 6 7
21 22 23 23 23 21 16 16 19 20 19 19 18 16 15 15 15 15 15 15 15 14 13 13 13 13 14 15 14 15 15 15 15 16 16 16 15 15 15 15 15 15 15 14 13 12 13 13 12 10 9 9 10 9 8 11 15 17 17 17 19 17 14 16 17 13 11 12 13 13 12 11 10 7 4 2 4 6 6 6 6 5 3 3 5
20 20 21 21 21 20 16 15 17 17 16 16 15 14 13 13 13 14 14 14 14 13 12 12 12 12 13 13 13 14 14 13 13 15 15 14 14 16 15 14 14 14 14 13 11 10 10 10 10 9 8 9 12 12 11 12 14 17 18 17 18 17 14 14 15 15 14 12 12 11 10 11 12 10 6 2 2 6 8 8 8 7 6 2 3
20 20 20 20 19 19 17 15 15 15 15 15 14 13 13 13 13 13 12 13 14 13 11 12 12 12 13 12 12 12 13 12 11 13 14 12 12 13 13 12 12 11 12 12 10 9 8 8 8 8 8 8 9 9 8 9 10 12 15 15 15 15 13 11 13 16 17 14 13 11 8 10 12 11 9 5 2 4 5 6 7 6 4 2 2
15 17 17 17 16 15 15 14 13 14 14 13 13 13 14 14 14 13 12 13 15 12 11 13 12 12 13 12 12 12 12 11 9 10 11 10 10 10 10 10 9 8 10 10 9 8 6 6 7 7 6 6 7 6 6 7 8 9 10 11 13 13 13 11 11 15 17 16 16 13 9 9 10 10 12 9 5 5 4 5 6 5 3 1 3
2 1 4 10 12 10 11 12 12 15 16 16 15 15 15 14 15 15 12 13 16 13 11 13 12 12 12 12 12 12 12 11 11 11 11 9 9 9 9 9 8 7 9 9 8 8 8 8 9 8 6 5 5 6 7 7 9 11 11 10 10 11 12 12 9 10 15 17 18 17 12 10 7 8 11 9 5 7 8 9 9 6 3 2 3
9 9 8 8 8 7 11 13 12 15 18 17 17 17 16 14 14 15 12 11 14 12 11 12 11 11 11 12 14 15 14 14 13 14 14 11 11 10 10 11 10 9 9 9 8 8 9 10 10 10 9 7 6 7 7 6 8 11 12 11 9 8 8 8 7 7 9 11 13 14 12 8 7 9 10 8 5 5 7 9 8 3 2 3 4
10 11 11 13 11 8 11 10 9 12 16 16 15 15 14 11 13 14 12 11 12 11 12 13 11 12 12 13 15 16 16 16 14 14 15 13 12 13 13 13 12 11 9 9 9 8 9 10 9 10 11 9 8 8 7 6 5 7 9 9 8 6 4 5 5 4 3 3 4 7 8 5 5 7 8 6 4 5 5 5 4 2 3 5 6
11 9 11 15 11 6 6 5 4 7 11 12 11 13 13 11 13 14 12 13 14 13 14 14 13 13 14 13 14 14 14 15 14 14 14 12 10 11 12 12 12 12 11 11 11 9 9 10 10 11 12 11 10 10 9 7 6 6 7 7 6 4 3 5 5 2 0 2 3 2 3 4 2 5 5 2 3 5 4 2 1 0 2 4 5
13 9 6 6 5 4 5 7 6 5 7 8 9 13 16 14 13 12 11 12 13 14 15 15 13 14 15 12 11 11 10 11 12 12 13 12 10 9 10 11 11 11 11 11 12 12 12 12 11 11 13 13 11 10 10 9 7 6 7 6 5 4 5 6 5 2 1 4 5 4 5 7 6 3 4 5 4 5 4 2 1 1 4 7 7
13 10 6 5 2 2 3 7 10 9 10 14 15 13 14 14 13 11 10 9 9 10 12 12 11 12 13 13 11 10 9 8 9 10 12 12 10 9 10 10 10 10 11 12 13 13 13 13 13 13 14 15 13 11 11 10 9 8 7 6 6 6 7 7 6 3 2 4 5 5 5 8 7 6 7 7 6 4 2 1 2 4 6 7 8
13 10 7 6 3 1 2 5 8 7 6 11 13 10 9 11 13 12 12 9 7 7 8 9 9 10 11 12 13 13 11 10 10 10 12 12 10 9 9 9 9 9 11 12 12 12 12 13 14 14 15 16 15 13 11 10 9 9 8 8 8 8 8 7 6 4 3 2 4 5 5 6 6 5 5 4 3 1 2 4 5 5 6 7 8
13 10 8 6 5 3 4 4 4 4 4 6 10 11 10 10 12 13 11 9 7 7 7 8 8 9 10 11 13 13 13 12 12 12 13 14 12 10 10 11 11 11 12 11 11 11 11 12 14 15 14 14 13 12 10 9 8 8 8 9 9 9 8 8 7 6 5 3 2 2 2 3 3 3 2 0 1 3 6 7 8 8 9 10 11
14 11 9 6 5 6 8 7 5 5 7 8 9 11 11 11 12 12 11 9 8 8 8 8 8 9 10 11 11 13 13 12 12 14 16 16 14 12 12 12 13 13 13 12 11 11 11 12 13 14 13 11 10 10 9 8 7 6 7 8 9 10 10 9 9 9 8 7 5 4 4 4 4 3 3 4 5 7 9 10 11 11 12 12 13
24 19 16 12 8 4 5 6 7 6 7 8 9 10 12 13 11 9 8 8 8 9 9 9 10 10 11 12 12 12 13 13 13 13 14 15 15 14 13 13 13 14 12 10 9 9 10 11 12 13 13 11 11 11 11 10 8 7 7 7 8 8 8 8 8 8 8 8 7 6 6 5 4 3 4 6 8 10 11 11 12 12 12 12 12
30 28 26 24 19 14 9 7 6 5 6 10 13 12 10 8 6 6 7 7 7 8 9 10 11 11 12 13 13 13 14 15 15 14 14 14 14 14 14 13 14 13 9 8 7 8 9 10 12 14 13 12 12 11 11 12 10 9 9 8 7 6 5 4 4 3 3 4 4 4 6 5 4 4 6 8 10 11 11 12 12 11 11 11 11
28 28 28 28 26 22 18 16 14 12 9 3 6 8 7 5 4 5 6 7 7 9 9 10 11 11 12 13 14 15 16 16 17 17 16 15 14 14 13 13 13 12 9 9 9 9 9 10 13 15 14 13 13 11 10 11 11 11 11 10 8 7 7 6 5 4 3 3 4 5 6 6 6 7 9 11 11 10 10 10 9 8 8 9 9
23 23 24 25 25 22 19 18 17 17 17 14 9 5 2 4 6 5 4 5 6 7 9 10 10 11 13 14 15 16 16 16 17 17 16 15 14 13 14 14 13 12 11 11 11 11 11 11 14 17 17 15 14 12 10 10 11 11 13 14 12 10 9 9 7 5 4 3 5 6 6 6 7 8 8 8 8 7 8 8 7 7 7 8 9
19 17 17 19 19 18 17 16 16 16 16 15 13 11 9 7 4 4 6 6 6 6 7 9 10 11 13 13 14 15 15 14 15 16 15 15 15 15 16 15 12 11 13 15 15 15 14 14 16 18 18 16 14 11 10 10 11 10 11 14 14 11 9 8 6 5 4 3 3 2 2 3 4 5 5 6 7 8 9 9 7 7 8 8 10
16 15 13 14 14 13 13 14 14 14 14 14 13 12 11 10 8 6 5 6 8 9 10 10 10 10 10 12 12 13 13 11 10 12 14 15 15 16 18 16 10 12 19 23 21 19 18 18 18 17 15 13 10 8 8 9 10 10 9 11 14 12 10 7 5 5 4 1 1 3 4 4 4 5 7 9 10 10 10 8 7 7 8 9 10
16 15 13 14 13 12 12 12 12 12 12 11 10 11 12 12 11 11 10 9 8 9 10 13 14 13 11 11 11 12 13 11 9 11 14 15 15 15 17 16 11 12 21 25 24 23 21 19 18 16 13 11 9 8 9 9 9 9 9 9 11 11 10 7 6 4 2 1 2 2 3 4 5 6 7 7 6 5 4 3 4 6 7 8 9
16 15 14 14 14 13 13 13 12 13 13 12 11 10 11 11 12 12 13 13 12 12 10 10 13 17 17 15 13 13 14 13 12 12 13 15 16 16 17 17 12 10 17 23 24 23 22 19 18 17 14 11 10 10 10 10 9 9 9 9 10 11 9 7 5 3 1 0 1 1 3 4 4 2 1 1 1 1 2 3 4 4 4 5 7
16 15 15 15 14 14 14 15 15 16 16 16 15 14 12 12 11 12 13 15 16 16 15 15 14 13 16 18 19 19 19 19 18 16 15 15 17 17 18 18 14 11 15 23 25 23 21 20 19 18 16 13 12 11 10 10 9 9 9 9 9 8 6 3 3 3 2 1 1 2 3 3 2 3 4 5 5 4 3 3 2 3 4 7 9
17 16 16 15 15 16 16 16 17 18 18 18 18 17 16 15 14 13 14 15 16 17 17 19 20 18 16 15 18 22 23 23 22 19 16 15 17 18 17 17 15 11 14 22 27 23 21 21 20 19 17 15 13 12 10 10 9 8 8 6 5 4 3 3 4 3 3 2 1 2 2 2 2 2 3 5 5 4 4 3 4 5 7 8 9
18 18 18 17 17 18 18 18 18 19 19 19 20 20 19 18 18 17 16 17 18 18 17 18 18 19 20 16 12 17 20 22 23 22 19 17 19 20 18 16 15 12 11 20 27 24 21 22 21 20 18 16 14 13 12 10 9 8 6 4 3 4 5 6 6 5 5 4 3 4 5 5 4 3 2 3 5 6 7 8 9 10 12 13 14
20 19 20 20 19 20 20 21 21 21 20 20 21 21 20 21 21 20 19 19 18 16 14 13 14 13 15 13 7 12 16 18 21 22 20 18 18 18 17 14 14 12 11 17 25 25 23 24 23 21 19 18 16 14 13 12 10 8 5 4 4 6 7 6 4 3 3 2 3 5 6 5 3 2 4 6 8 10 11 12 13 14 16 17 18
21 20 20 20 20 21 22 22 22 21 20 20 20 20 20 21 22 22 21 19 15 12 11 13 14 13 13 13 7 4 10 14 15 16 17 17 13 10 8 8 9 11 13 16 21 24 25 25 23 22 20 18 16 15 14 12 9 7 5 6 7 8 6 3 1 1 2 2 3 4 3 2 3 5 6 8 9 9 10 12 13 15 16 17 19
20 20 20 20 21 22 23 23 23 23 22 21 21 20 20 21 21 21 21 20 16 13 13 14 14 12 11 11 10 7 3 6 11 14 17 19 16 12 11 9 5 6 10 14 18 24 25 23 21 21 20 18 16 15 13 10 9 8 8 9 9 8 5 3 2 3 4 4 3 1 2 4 5 5 7 8 9 9 10 12 13 15 15 16 17
18 19 19 19 20 22 22 21 22 23 23 22 21 20 19 20 20 19 18 19 20 18 17 16 14 13 13 13 12 9 7 5 5 7 10 15 19 19 17 14 8 4 6 12 19 24 24 20 17 17 18 18 16 15 13 12 12 12 11 10 9 8 6 5 5 5 5 3 2 3 3 4 5 6 6 7 8 9 10 12 13 14 14 14 14
17 17 17 18 19 21 21 21 20 20 21 21 21 21 19 18 18 18 17 17 18 20 20 19 16 12 12 14 14 13 11 8 7 7 8 10 14 17 17 17 15 9 9 15 21 22 21 20 19 18 18 18 18 16 15 16 17 16 13 10 9 9 9 7 6 6 4 2 1 1 2 3 3 4 4 5 6 7 9 11 12 13 13 14 15
15 16 16 16 17 18 18 19 19 20 20 20 20 21 22 21 19 18 18 18 18 19 19 18 18 16 14 13 13 14 13 11 10 11 12 11 12 14 16 17 17 15 15 18 20 18 17 19 21 22 21 20 19 18 18 19 19 17 14 11 9 10 9 7 6 5 3 1 1 0 2 2 1 2 4 6 7 9 10 11 12 13 14 14 15
12 13 14 14 15 16 17 18 18 19 20 20 20 20 21 21 21 21 21 20 20 20 18 17 17 18 18 15 13 13 14 12 10 11 12 12 11 13 17 19 19 19 18 17 16 15 18 22 24 24 22 21 19 19 20 20 19 18 16 12 10 10 8 6 6 5 3 2 2 2 2 3 3 5 7 8 9 9 10 10 12 13 13 13 13
11 12 13 14 14 14 16 17 18 19 19 19 20 20 20 20 21 23 25 25 24 23 20 17 17 17 18 18 15 11 12 12 11 11 11 11 11 14 17 20 21 21 20 19 18 20 23 26 26 24 23 22 21 20 20 20 19 18 16 13 11 11 9 7 6 5 4 4 3 2 3 5 6 8 9 8 8 8 8 9 11 11 11 11 12
10 12 12 11 11 13 15 16 17 17 18 18 19 21 22 23 23 22 23 24 25 26 26 22 18 17 17 19 19 15 10 11 12 12 12 13 13 16 21 22 22 21 22 23 24 24 25 27 27 27 27 24 21 20 20 20 20 18 14 12 13 12 10 9 8 7 6 4 3 2 3 5 7 8 7 7 7 8 8 8 8 8 8 10 12
7 8 8 9 11 13 15 14 14 15 16 18 19 21 21 22 22 21 20 19 19 21 24 24 21 18 16 18 20 19 13 9 10 12 13 14 14 17 22 24 22 22 24 26 26 27 28 28 27 27 27 25 22 21 22 22 20 17 14 13 15 14 12 10 9 6 3 2 1 1 2 3 4 4 5 6 6 6 6 6 6 7 8 10 12
5 5 6 8 11 12 12 12 12 14 15 17 18 18 18 19 19 19 19 19 18 19 20 22 20 16 14 14 16 17 15 10 9 10 12 13 12 13 18 23 25 26 27 26 26 26 26 24 22 21 22 23 23 23 22 20 17 15 13 13 14 13 11 9 6 3 2 3 3 3 3 4 4 4 5 5 5 6 6 6 7 8 10 12 14
5 4 6 9 11 11 12 12 12 13 15 16 17 18 18 18 18 18 18 19 19 20 19 19 17 14 12 12 13 15 15 12 9 9 10 10 9 10 15 21 24 24 22 18 18 20 19 19 19 21 23 24 24 21 19 18 15 14 13 12 11 10 8 6 4 4 5 5 3 2 2 3 5 6 6 6 7 7 7 7 9 10 11 13 15
4 5 7 10 11 11 12 13 13 13 15 16 17 17 17 17 17 18 18 18 18 18 18 16 14 10 8 9 11 13 14 12 9 9 8 8 8 9 13 17 19 20 17 11 11 15 17 17 19 21 23 24 21 18 18 16 15 15 14 11 9 8 6 5 6 7 7 5 2 1 2 4 6 7 7 8 9 9 8 8 9 10 12 14 16
6 7 9 10 11 11 12 13 13 13 13 14 15 16 16 17 17 17 17 17 16 16 14 12 9 6 5 8 11 12 12 11 9 8 6 5 6 7 10 13 14 18 18 15 16 20 22 21 21 20 19 19 18 16 16 15 14 13 12 9 8 8 7 7 9 9 6 4 1 2 4 5 6 6 6 9 9 8 7 8 9 11 14 16 17
7 9 10 11 11 10 11 12 13 13 13 12 14 15 15 16 16 16 16 16 14 13 11 9 7 6 7 8 11 11 11 11 10 8 6 5 4 5 8 12 15 17 19 20 20 20 19 20 20 17 16 16 17 17 16 15 13 11 9 9 10 11 10 10 10 8 5 3 1 3 4 5 6 6 7 8 8 6 7 9 11 13 14 16 17
7 9 11 11 11 10 10 12 13 13 12 11 12 13 14 15 15 15 15 15 14 12 11 9 8 8 7 7 8 8 8 8 8 8 7 7 6 6 7 11 14 16 16 16 16 17 18 19 19 20 19 20 20 19 17 15 13 12 12 13 14 13 12 11 9 6 3 1 1 3 3 5 6 6 7 6 5 6 8 11 12 12 13 14 15
7 9 10 11 11 11 11 11 12 13 13 13 13 13 13 15 16 16 17 17 15 12 10 10 10 9 6 5 5 4 3 4 6 6 7 7 7 5 5 7 10 12 12 11 12 17 22 23 23 23 22 21 20 18 17 16 15 15 15 13 12 10 8 7 5 3 1 0 0 1 2 4 5 6 5 4 4 7 10 12 12 12 13 14 15
7 9 10 11 11 11 11 11 12 13 14 15 16 15 14 15 17 17 18 19 18 15 13 13 13 10 9 10 9 7 5 4 3 2 1 4 5 5 6 8 10 12 12 14 17 22 25 26 25 23 22 20 18 17 16 16 15 13 11 8 7 6 4 3 2 1 2 1 1 1 1 2 4 5 4 3 5 8 11 12 13 14 15 15 16
8 9 11 11 12 12 12 12 12 13 13 14 16 16 16 17 19 19 19 19 19 18 18 19 20 20 21 21 20 18 17 15 14 13 11 10 11 12 13 14 14 15 17 20 23 24 23 24 25 24 22 20 18 17 15 14 10 8 6 5 4 4 4 3 2 2 2 1 0 1 1 1 3 4 4 3 6 9 11 12 14 15 16 17 18
9 9 11 12 12 12 12 12 13 14 13 13 14 16 17 18 19 20 20 20 20 20 20 21 22 23 25 25 25 25 25 24 23 23 23 22 23 23 23 22 22 22 24 25 25 23 22 24 24 23 21 19 16 15 13 10 7 6 6 6 6 6 6 5 4 3 2 1 1 3 4 3 5 5 3 4 6 9 12 13 15 16 17 18 18
9 9 10 11 10 10 11 12 14 15 15 14 13 14 16 17 18 19 19 20 20 20 20 21 21 23 24 26 27 27 27 27 27 28 28 28 28 28 28 28 28 28 27 26 24 23 22 22 21 19 17 15 13 11 10 8 8 7 6 5 5 4 4 4 4 4 3 2 2 3 4 5 7 5 3 6 6 8 11 14 16 18 19 17 15
9 8 9 9 9 9 9 10 11 12 14 15 14 13 14 14 15 16 17 18 19 20 20 21 22 22 23 24 25 26 26 27 27 27 28 28 29 29 28 28 28 27 26 24 22 21 19 18 16 15 13 12 11 10 9 8 8 7 5 4 3 2 1 2 3 4 3 3 3 4 5 6 7 5 4 5 6 7 11 14 17 19 17 14 12
9 8 8 9 9 10 9 9 10 10 11 12 13 14 13 13 13 15 15 16 18 18 19 19 20 21 22 23 24 24 25 26 25 25 25 25 25 24 23 23 23 22 21 20 18 17 15 15 14 13 12 11 10 9 8 7 6 4 3 1 1 1 0 1 2 5 4 4 4 5 6 6 6 5 5 6 6 8 12 15 17 17 15 11 11
8 8 9 9 9 10 10 10 10 10 9 10 11 12 13 12 13 14 14 15 16 17 17 18 18 18 19 20 21 22 22 22 22 22 22 21 20 20 19 18 18 17 16 16 15 13 13 12 12 12 11 10 8 6 5 4 3 2 0 0 1 1 0 1 3 5 5 4 4 5 6 6 6 5 7 8 9 9 10 12 15 16 13 10 11
8 8 8 8 9 10 11 11 10 9 9 10 11 11 12 13 14 14 14 14 15 16 16 17 17 17 17 18 19 19 19 19 19 19 18 18 17 17 16 16 16 16 15 15 13 11 10 10 9 9 9 7 6 5 4 2 1 1 0 1 0 1 1 2 3 5 5 5 5 6 6 7 6 6 8 9 9 9 9 8 11 13 12 10 11
8 8 8 9 10 10 10 10 10 9 9 9 10 11 12 13 12 12 13 14 14 14 15 15 15 15 16 16 16 17 17 17 17 17 17 17 17 16 16 17 16 15 14 13 12 10 9 8 8 8 7 6 6 5 4 3 2 2 2 2 2 2 3 4 4 5 6 6 6 7 7 7 7 7 8 8 8 9 9 7 8 11 13 12 13
Wind_Direction
184 179 175 172 171 172 170 167 168 166 164 165 162 155 151 153 156 154 153 154 153 150 148 145 143 143 141 139 136 136 135 133 132 129 126 126 126 127 128 126 123 121 119 119 123 123 117 112 110 106 108 106 90 83 95 102 108 108 119 138 141 143 142 130 122 122 132 143 152 161 168 166 164 164 151 163 176 172 193 198 169 133 84 66 47
181 178 176 175 173 172 168 163 163 163 164 165 162 158 153 150 152 155 155 157 155 151 151 150 147 144 142 142 141 142 140 138 141 140 134 133 138 139 137 135 134 133 130 125 128 129 124 122 119 109 106 104 90 84 98 106 109 115 127 139 141 145 150 141 136 139 145 151 156 166 176 179 183 190 185 177 191 206 227 236 217 204 176 88 48
180 177 177 177 175 173 168 162 162 164 165 164 158 153 154 154 154 156 157 158 157 156 156 155 156 154 149 148 149 145 142 142 147 149 142 136 139 144 144 142 139 140 140 135 131 134 134 132 129 119 111 105 97 91 96 105 105 109 121 136 144 147 149 148 147 153 160 163 171 180 185 191 197 198 201 203 182 205 228 242 234 220 204 166 45
182 180 181 179 176 176 171 162 163 166 164 161 155 150 156 162 161 161 163 163 162 162 164 163 163 164 160 155 155 151 147 147 148 149 145 138 138 143 145 144 140 141 146 144 140 138 132 130 134 132 124 113 103 95 96 107 110 113 119 126 133 135 140 153 160 164 165 167 178 186 183 188 199 207 209 206 180 195 223 234 224 211 198 198 32
191 189 183 172 165 168 170 165 157 154 154 154 156 160 166 169 172 170 169 171 170 166 167 170 170 170 168 163 161 159 155 151 148 145 146 146 144 142 141 140 133 132 138 137 139 139 130 129 138 139 130 120 117 118 115 115 123 138 139 131 128 123 125 142 162 172 175 174 180 188 183 178 194 211 206 195 188 193 171 143 146 135 131 114 38
335 208 137 130 127 133 156 162 150 151 159 160 165 178 184 187 185 178 174 174 173 171 171 173 173 174 175 173 170 167 162 160 163 158 154 155 154 148 146 145 136 129 133 135 140 145 145 148 149 149 143 133 137 144 138 122 124 142 154 152 145 132 124 125 133 161 177 178 182 190 190 184 186 194 195 192 188 181 160 142 137 129 123 84 33
52 50 76 124 141 151 168 171 162 163 168 166 171 181 187 195 191 177 173 175 173 175 177 175 176 180 183 182 178 176 174 173 174 170 164 162 158 157 158 158 156 149 143 145 152 155 159 162 160 161 160 156 160 163 156 137 123 132 146 153 152 141 126 120 113 125 152 165 177 185 188 189 182 171 179 195 202 184 174 173 175 183 262 295 319
89 85 121 157 179 189 180 171 157 165 173 174 179 179 173 182 188 179 178 187 188 191 187 181 183 183 182 182 179 179 182 183 183 177 168 159 154 161 169 173 175 171 163 166 174 178 184 186 178 174 174 173 176 184 185 175 155 143 147 155 159 145 122 128 133 130 131 124 155 183 183 185 200 191 186 188 183 187 201 205 208 264 290 293 310
98 98 136 158 170 190 195 180 151 171 181 175 175 179 172 175 189 193 198 201 201 198 187 185 189 184 177 176 177 181 186 189 192 190 183 174 167 172 181 189 196 195 191 194 201 208 215 214 204 193 191 187 183 190 198 198 196 187 175 176 185 184 160 152 151 160 204 61 68 126 144 117 161 218 206 164 132 152 167 177 170 236 285 299 320
104 103 114 131 151 192 201 182 163 164 182 177 176 186 187 187 191 194 194 192 193 192 186 190 197 191 185 184 183 187 192 193 199 203 200 197 194 192 197 205 211 211 210 213 220 229 236 236 229 215 207 199 188 188 197 200 201 197 191 193 199 198 184 174 171 169 108 87 79 68 76 88 100 137 136 120 132 142 133 125 118 326 315 317 321
98 105 96 74 78 218 180 153 149 148 173 188 190 191 195 199 200 197 188 176 173 179 187 193 193 188 192 199 203 208 213 213 212 213 212 207 200 196 203 215 223 224 227 233 235 238 242 245 243 232 220 211 200 189 190 197 202 202 202 202 199 191 185 185 190 188 138 106 98 93 97 104 109 119 124 128 143 143 105 28 348 337 330 329 323
85 92 96 96 106 193 104 131 147 147 166 191 196 201 211 212 211 208 199 189 181 182 191 197 194 192 199 208 216 222 226 229 227 221 214 207 205 207 212 224 236 238 239 241 241 243 245 244 240 230 219 214 206 197 197 209 219 220 217 211 199 191 190 193 199 205 195 145 107 101 116 126 127 136 140 136 144 139 347 341 341 336 328 326 319
85 81 76 99 138 145 119 130 160 166 169 190 204 213 223 229 229 220 208 207 212 210 206 204 201 204 208 213 222 227 228 232 232 228 223 219 225 235 237 240 246 249 251 248 246 247 242 234 228 219 209 206 202 198 205 218 226 221 212 209 207 205 206 208 213 221 225 214 165 124 145 171 173 181 195 206 331 331 334 335 334 331 325 322 318
79 88 78 88 136 150 146 146 143 158 173 181 197 212 225 240 240 228 219 224 226 218 217 216 215 220 222 225 230 234 236 236 233 234 235 235 241 249 248 249 251 253 254 253 252 245 229 222 219 206 193 189 189 185 183 184 186 184 186 198 210 217 224 229 232 237 243 247 252 251 247 248 242 240 260 291 316 327 330 330 328 323 319 315 313
58 63 60 56 66 101 139 137 128 144 171 179 184 196 213 226 229 222 222 232 236 233 231 229 230 233 236 240 241 241 243 238 234 239 241 237 240 245 249 251 250 247 245 243 240 227 212 209 206 193 180 176 182 182 176 172 166 161 169 185 202 213 223 231 237 247 252 254 259 251 236 234 235 243 280 305 319 326 327 325 320 312 308 307 310
45 44 42 40 47 60 67 75 97 133 176 196 201 199 201 211 220 224 230 237 245 245 239 236 238 240 244 247 247 248 247 241 239 244 243 236 235 240 245 244 237 232 228 216 205 197 196 197 195 189 183 179 179 176 173 176 174 171 175 180 189 197 197 202 218 240 248 242 237 223 213 211 222 261 299 313 317 319 315 310 307 302 301 310 320
39 39 35 31 34 42 45 47 50 53 59 99 209 213 212 222 231 232 239 244 247 245 241 240 242 245 248 250 252 254 252 248 247 247 243 239 239 237 233 223 215 214 211 203 200 197 197 200 198 192 186 181 177 171 167 170 174 181 188 186 183 187 186 183 185 175 176 201 202 205 215 229 258 285 300 305 306 307 306 305 305 302 306 316 321
33 33 31 28 27 26 25 27 31 34 36 36 39 42 2 277 258 251 257 267 269 264 255 250 251 254 254 251 253 257 256 253 251 247 242 240 235 220 206 201 201 207 207 202 205 205 201 201 200 193 186 182 180 181 182 182 179 183 192 192 189 189 190 187 183 177 176 198 211 221 238 259 282 294 299 305 308 309 310 312 308 304 307 311 313
22 21 22 22 22 21 18 14 13 15 13 10 13 18 19 14 338 280 260 260 272 276 267 262 262 264 263 258 256 258 256 254 251 245 237 231 219 201 196 200 206 209 200 189 186 186 180 178 184 184 182 179 178 182 190 192 188 186 191 194 194 193 191 182 171 173 176 177 199 241 297 311 315 322 323 325 324 318 316 315 306 300 302 305 317
12 11 12 12 9 9 13 9 4 4 0 353 348 345 346 355 357 343 311 281 270 261 256 257 255 255 256 253 250 247 242 239 238 232 222 215 207 198 201 208 207 195 187 179 174 172 166 164 172 177 178 178 177 182 188 191 192 190 186 189 190 189 188 177 158 158 161 132 354 352 3 357 346 340 329 320 316 314 318 319 310 304 301 303 318
6 3 1 1 359 355 358 358 353 351 348 340 333 327 324 325 328 331 331 326 314 289 265 253 246 244 246 245 240 235 232 229 223 217 212 211 210 207 212 219 214 192 186 180 176 176 171 169 176 182 183 184 183 183 184 182 184 183 175 175 177 175 173 169 159 154 147 23 350 2 12 359 343 330 317 310 306 310 333 2 356 337 323 315 322
358 354 350 351 351 349 347 348 346 345 346 342 333 323 319 317 315 318 320 322 326 323 311 285 259 246 243 243 240 233 230 230 226 220 218 220 221 219 222 227 226 211 199 191 185 182 181 183 189 191 189 188 185 181 179 177 175 169 160 155 154 155 157 161 172 183 189 127 75 41 4 351 350 345 354 58 88 74 51 46 21 351 328 321 330
353 352 350 347 347 345 343 341 339 339 342 345 343 338 333 327 321 321 320 318 317 315 315 315 303 274 252 243 240 236 232 228 226 227 229 233 233 230 233 235 231 225 214 202 193 188 187 189 190 188 186 188 188 183 178 177 174 164 156 153 151 154 160 171 197 223 237 227 250 325 334 348 53 99 79 61 60 51 40 29 359 327 316 320 327
355 355 354 352 352 351 347 343 342 341 341 342 344 344 343 341 336 331 326 323 322 317 312 311 310 306 295 270 242 230 225 221 221 226 231 234 233 232 235 234 228 225 222 211 201 193 189 189 186 183 185 187 184 181 177 176 174 165 159 154 141 138 142 138 148 161 158 147 45 14 19 50 85 78 39 31 32 29 23 12 353 341 334 330 327
1 359 357 354 351 349 348 346 344 343 341 342 344 344 344 345 344 342 340 336 329 323 319 318 315 310 310 301 258 224 219 218 219 223 227 228 228 229 232 229 221 221 220 211 204 196 190 188 183 181 184 184 180 178 176 173 171 165 156 143 126 140 150 145 143 146 138 111 74 80 96 94 77 56 20 347 329 327 329 326 322 321 321 320 317
5 3 2 359 353 349 347 346 344 343 341 339 338 338 338 340 339 339 342 343 340 338 341 349 352 344 336 331 286 225 220 219 218 219 221 220 219 222 224 220 215 213 205 201 201 196 188 184 181 179 182 182 180 179 175 169 167 162 153 153 161 166 164 156 150 153 145 105 85 104 109 89 53 9 328 319 321 326 326 323 321 322 325 326 324
1 359 359 1 2 0 358 356 354 353 351 349 346 343 340 340 341 343 344 341 339 344 353 358 3 7 9 11 7 240 221 221 222 225 224 218 212 215 225 223 215 206 195 192 196 193 185 180 178 177 175 172 172 173 170 167 167 161 155 162 166 165 163 160 170 198 190 153 126 122 107 21 343 330 327 329 333 334 329 327 329 331 334 337 335
358 355 354 355 358 359 359 359 359 357 354 354 355 357 357 355 354 357 359 355 344 333 329 329 330 331 340 354 0 357 323 249 239 238 236 234 233 236 239 236 222 207 202 196 189 183 177 171 166 167 167 164 165 166 165 165 162 154 151 157 160 162 168 176 173 170 167 162 160 192 325 339 337 333 332 331 331 331 327 329 334 336 337 338 335
355 354 353 351 353 355 355 356 356 355 355 351 347 348 353 357 357 359 4 7 5 360 353 344 332 315 306 308 310 314 324 319 284 262 252 248 244 239 233 227 223 225 221 199 182 174 171 166 162 167 169 166 166 168 166 164 159 152 151 156 162 171 179 173 166 171 179 195 249 295 326 337 327 320 324 327 328 330 331 334 338 338 336 336 333
354 353 351 349 348 350 352 353 352 351 352 351 346 341 336 336 342 349 350 350 356 4 7 7 2 344 318 305 296 289 287 286 282 288 289 270 250 239 234 232 228 216 194 188 181 175 174 174 176 182 182 177 175 174 170 166 162 156 157 161 164 170 175 172 170 176 189 219 272 330 354 335 313 309 325 333 334 335 339 341 341 338 334 333 331
353 349 348 348 347 346 346 346 346 347 347 347 348 346 339 328 323 329 335 334 337 344 350 356 359 356 343 324 304 293 291 286 275 275 282 281 262 242 234 233 229 214 197 190 181 174 179 185 188 190 190 186 183 179 173 170 167 164 169 175 170 168 171 171 175 183 201 251 245 270 315 300 280 307 324 328 330 333 336 339 337 333 331 329 324
349 343 342 340 338 340 342 341 342 344 344 345 345 346 347 342 331 323 322 325 330 333 334 341 348 350 348 342 321 293 286 291 293 283 274 270 260 245 238 235 229 217 208 200 189 188 201 203 197 192 191 189 188 182 174 172 172 173 179 184 181 180 185 187 194 209 239 255 229 242 280 272 283 311 315 316 318 321 324 328 329 328 326 324 322
347 337 337 338 338 342 344 343 341 340 341 343 343 342 343 345 340 332 325 322 323 324 323 330 341 341 343 348 341 309 276 272 281 281 268 257 250 240 230 224 220 217 214 211 207 206 207 206 201 199 198 194 190 186 181 181 183 184 185 188 186 186 188 189 187 185 183 189 201 235 276 282 296 308 311 312 314 315 318 324 328 330 328 328 329
354 341 341 348 353 353 351 347 344 342 342 343 342 338 336 335 334 334 332 328 325 323 320 322 329 330 333 341 344 335 300 267 264 267 263 257 253 239 224 216 219 226 226 221 215 209 209 213 213 208 201 194 191 191 189 186 182 176 173 178 181 175 168 167 166 162 166 188 217 260 299 307 309 311 316 324 323 319 322 330 338 343 341 338 334
2 355 354 358 359 358 355 351 347 345 342 340 337 335 333 333 331 332 333 330 327 324 321 319 321 321 323 331 338 340 328 289 265 261 258 258 258 245 225 214 213 217 218 216 213 212 214 217 214 206 199 194 189 183 177 171 167 162 156 159 164 162 157 159 162 161 172 192 147 79 30 13 14 3 350 349 346 342 349 2 8 1 350 342 335
0 0 359 2 3 1 357 352 350 348 344 341 340 338 336 336 334 330 328 325 322 319 317 316 316 318 322 330 336 340 336 315 281 268 264 263 267 255 232 221 217 211 206 205 208 209 209 207 203 203 200 189 175 166 164 162 162 162 159 155 156 158 159 162 161 153 141 123 104 84 46 34 40 30 14 17 30 33 29 23 12 360 350 343 338
13 11 9 11 9 4 1 0 1 1 355 350 349 346 342 338 336 332 328 323 320 317 315 314 313 315 324 333 337 340 342 331 297 280 277 269 265 256 239 231 222 207 194 190 192 194 194 194 195 195 187 172 160 155 157 157 158 161 164 161 158 160 165 169 163 146 136 127 107 67 25 11 5 1 5 19 27 22 16 12 6 358 348 340 336
37 27 20 17 11 6 7 8 6 3 360 355 351 347 343 341 339 336 331 326 323 320 316 314 313 316 325 330 327 331 341 337 308 287 278 261 249 242 234 226 212 193 182 172 158 154 155 160 169 170 163 155 150 150 152 153 155 158 159 158 161 166 175 181 170 155 146 138 121 50 356 353 0 7 13 16 12 9 12 14 5 349 336 331 330
51 34 25 20 16 12 11 12 10 5 0 358 356 353 349 346 344 341 337 334 331 327 324 321 320 321 331 333 327 327 333 331 310 285 259 240 243 240 225 210 190 175 168 156 140 139 141 143 147 151 151 148 148 151 152 150 152 152 151 156 169 172 168 167 164 157 149 145 126 9 351 3 28 41 28 14 13 16 15 5 350 336 330 330 332
57 41 27 18 19 19 15 17 18 10 1 2 7 7 2 355 350 346 344 342 338 332 329 326 322 318 317 321 323 321 319 314 301 277 243 211 207 216 202 184 169 158 149 138 132 135 141 143 145 150 154 151 148 147 145 144 145 147 147 152 154 147 139 142 149 147 140 136 61 9 17 42 57 52 29 19 21 17 357 346 342 340 338 337 335
62 51 36 25 27 28 23 25 24 17 12 15 18 17 13 7 4 2 0 356 348 334 323 319 323 329 327 322 325 327 322 314 303 282 252 217 193 186 177 169 163 155 145 136 131 131 136 143 148 149 148 144 140 139 138 139 141 143 141 138 136 132 130 135 138 136 135 123 28 35 65 71 57 42 35 36 32 6 350 350 351 348 342 340 338
73 68 54 42 38 35 31 31 32 31 31 31 30 27 23 16 15 17 19 19 14 3 353 351 351 350 349 354 3 4 335 311 308 294 265 230 206 192 176 169 165 156 149 149 148 141 137 139 142 142 139 136 135 135 134 135 138 139 138 135 134 134 135 133 129 134 161 161 51 110 119 95 71 59 52 39 13 359 357 357 354 345 338 338 340
92 80 70 59 50 44 39 36 37 41 43 41 38 37 34 29 27 29 32 36 37 37 38 42 43 50 67 74 72 75 81 73 57 53 202 205 192 175 157 153 156 155 150 145 141 137 133 130 131 133 132 131 132 131 128 128 133 139 139 134 131 129 126 118 118 152 166 160 184 208 177 131 110 99 84 48 7 2 0 356 349 343 339 340 340
119 93 80 73 60 51 49 45 45 49 51 48 45 44 42 40 41 42 45 49 52 54 59 66 72 80 85 88 91 93 94 94 95 99 104 112 119 123 128 134 143 150 147 138 134 134 133 129 126 125 123 123 126 126 122 122 127 130 122 112 109 106 100 92 98 122 142 159 195 353 21 100 146 136 112 61 13 358 354 351 346 342 340 340 339
130 103 87 81 69 59 56 53 53 55 54 52 51 50 50 50 49 49 52 55 59 62 66 70 75 80 82 85 90 93 94 95 96 96 99 102 105 108 113 119 126 131 132 130 129 131 130 126 123 120 118 117 118 117 115 115 117 112 102 99 103 101 91 77 70 76 96 114 68 39 40 77 132 134 97 41 13 354 348 348 346 342 342 341 338
133 112 99 93 82 73 65 57 54 54 53 52 54 56 57 57 56 55 56 58 62 65 67 69 74 78 81 85 89 90 92 93 92 91 94 99 101 104 108 112 115 117 117 117 118 118 119 119 120 120 120 120 120 120 121 121 121 119 112 106 104 96 82 67 56 56 72 88 66 51 62 101 124 119 52 22 14 356 350 352 351 347 347 346 343
141 120 113 108 99 93 83 67 58 54 51 52 56 60 63 63 61 62 63 64 65 67 68 71 76 80 82 86 90 91 92 92 90 89 90 93 96 100 104 107 108 109 108 108 107 106 105 107 110 115 121 126 127 127 124 118 114 114 111 104 90 62 58 72 52 46 61 80 68 68 90 112 116 101 54 34 25 1 352 354 354 354 354 354 355
149 127 129 127 116 111 105 87 74 64 55 53 56 60 63 65 66 69 71 71 71 73 74 75 79 83 85 88 91 93 94 93 91 90 90 89 90 93 95 97 100 102 101 101 101 100 100 104 109 116 122 124 119 112 104 98 98 101 101 105 64 346 342 115 58 47 61 77 71 76 94 103 100 85 59 41 24 360 350 351 355 359 1 1 4
151 137 138 134 125 122 119 109 97 83 69 64 65 65 67 71 73 75 77 78 79 82 84 84 86 89 92 94 95 96 97 97 95 95 95 93 92 92 91 90 91 93 93 94 96 99 105 114 123 128 128 123 115 106 98 94 99 102 81 277 286 325 38 122 77 54 60 73 74 77 85 87 83 67 40 25 17 6 358 354 356 1 3 3 5
129 135 139 137 135 133 125 115 109 98 85 81 79 73 73 78 81 82 84 87 88 90 91 91 93 95 97 99 99 98 97 97 98 99 101 102 102 102 100 96 93 92 93 97 101 105 110 117 123 128 130 129 127 123 114 102 104 104 345 325 334 17 83 108 84 62 63 76 83 83 82 77 67 47 29 20 15 10 7 359 352 355 1 2 358
100 107 111 117 128 137 134 124 118 115 111 104 94 84 81 84 87 88 89 92 96 97 97 96 97 98 100 102 102 100 97 97 97 99 103 105 107 108 107 104 101 99 98 101 105 108 111 115 118 122 127 128 123 118 111 103 100 94 77 77 83 78 86 94 85 71 74 82 86 82 69 51 35 25 22 18 10 5 6 4 352 351 357 358 353